This is the latest recevied weather packets stored in our database for station/object WA7CUG. If no packets are shown the sender has not sent any weather packets the latest 10 day(s).
| Time | Temp. | Humidity | Pressure | Rain* | Wind** | Luminosity | Snow |
|---|---|---|---|---|---|---|---|
| 1778210658 | 23.33° C | 37% | 1011.4 hPa | 0 mm | - | 1 W/m² | - |
| 1778210355 | 23.33° C | 37% | 1011.3 hPa | 0 mm | - | 2 W/m² | - |
| 1778210053 | 23.89° C | 38% | 1011.2 hPa | 0 mm | - | 4 W/m² | - |
| 1778209748 | 23.89° C | 38% | 1011.2 hPa | 0 mm | - | 6 W/m² | - |
| 1778209446 | 23.89° C | 38% | 1011.1 hPa | 0 mm | - | 9 W/m² | - |
| 1778209143 | 23.89° C | 39% | 1011.1 hPa | 0 mm | - | 12 W/m² | - |
| 1778208839 | 24.44° C | 38% | 1011 hPa | 0 mm | - | 14 W/m² | - |
| 1778208536 | 25° C | 36% | 1011.1 hPa | 0 mm | - | 16 W/m² | - |
| 1778208233 | 25° C | 35% | 1010.9 hPa | 0 mm | - | 20 W/m² | - |
| 1778207930 | 25° C | 35% | 1010.9 hPa | 0 mm | - | 25 W/m² | - |
| 1778207626 | 25° C | 35% | 1010.9 hPa | 0 mm | - | 31 W/m² | - |
| 1778207323 | 25.56° C | 35% | 1011 hPa | 0 mm | - | 37 W/m² | - |
| 1778207019 | 25.56° C | 34% | 1010.7 hPa | 0 mm | - | 40 W/m² | - |
| 1778206716 | 25° C | 35% | 1011 hPa | 0 mm | - | 44 W/m² | - |
| 1778206412 | 25° C | 35% | 1010.8 hPa | 0 mm | - | 49 W/m² | - |
| 1778206108 | 25.56° C | 36% | 1011 hPa | 0 mm | - | 53 W/m² | - |
| 1778205807 | 25.56° C | 35% | 1010.8 hPa | 0 mm | - | 58 W/m² | - |
| 1778205503 | 25.56° C | 35% | 1011 hPa | 0 mm | - | 63 W/m² | - |
| 1778205201 | 25.56° C | 35% | 1011 hPa | 0 mm | - | 68 W/m² | - |
| 1778204897 | 25.56° C | 37% | 1010.9 hPa | 0 mm | - | 74 W/m² | - |
| 1778204594 | 26.67° C | 35% | 1010.8 hPa | 0 mm | - | 78 W/m² | - |
| 1778204290 | 26.67° C | 36% | 1010.9 hPa | 0 mm | - | 84 W/m² | - |
| 1778203986 | 27.22° C | 34% | 1010.7 hPa | 0 mm | - | 96 W/m² | - |
| 1778203684 | 27.22° C | 32% | 1010.9 hPa | 0 mm | - | 127 W/m² | - |
| 1778203381 | 27.22° C | 32% | 1011 hPa | 0 mm | - | 140 W/m² | - |
* Rain latest hour (hover to see other rain measurements)
** Current wind speed in m/s (hover to see current wind gust speed)